Location: Badlands Tank
(34.7185°N, 107.0376°W)
Time: 14:39:36
(UTC+00:00)

USA 215 - Pass Details

Date: 14 August 2025
Orbit: 1098 x 1109 km, 123.0° (Epoch: 10 January)

Event Time Altitude Azimuth Distance (km) Brightness Sun altitude
Rises 04:06:36 0° 39° (NE) 3,930 6.2 -24.0°
Reaches altitude 10° 04:09:08 10° 35° (NE) 2,971 5.6 -24.4°
Maximum altitude 04:15:30 56° 319° (NW) 1,300 3.9 -25.4°
Drops below altitude 10° 04:21:52 10° 244° (WSW) 2,965 5.7 -26.4°
Sets 04:24:24 0° 240° (WSW) 3,921 6.4 -26.8°
